• In Belarus
  • List of Countries
  • For 7 days
  • Water Temperature
  • Satellite Maps
  • Weather Map
  • Weather Widgets
  • user-avatar
    Login

    Hourly Weather Zagora

    Today, 23 February, Saturday

    Time Temperature Precipitation Wind Pressure Humidity
    00:00 -4°C° 0 mm 2 mps 767 mmHg 52%
    01:00 -4°C° 0 mm 2 mps 768 mmHg 51%
    02:00 -4°C° 0 mm 2 mps 767 mmHg 51%
    03:00 -4°C° 0 mm 2 mps 767 mmHg 50%
    04:00 -4°C° 0 mm 2 mps 767 mmHg 50%
    05:00 -4°C° 0 mm 2 mps 767 mmHg 50%
    06:00 -4°C° 0 mm 2 mps 767 mmHg 50%
    07:00 -2°C° 0 mm 1 mps 767 mmHg 50%
    08:00 -4°C° 0 mm 2 mps 767 mmHg 44%
    09:00 -3°C° 0 mm 2 mps 767 mmHg 38%
    10:00 -2°C° 0 mm 2 mps 767 mmHg 32%
    11:00 -1°C° 0 mm 2 mps 767 mmHg 28%
    12:00 +1°C° 0 mm 2 mps 766 mmHg 25%
    13:00 +2°C° 0 mm 2 mps 766 mmHg 22%
    14:00 +2°C° 0 mm 2 mps 766 mmHg 23%
    15:00 +2°C° 0 mm 2 mps 766 mmHg 24%
    16:00 +2°C° 0 mm 2 mps 765 mmHg 26%
    17:00 +1°C° 0 mm 2 mps 765 mmHg 30%
    18:00 -1°C° 0 mm 2 mps 765 mmHg 34%
    19:00 -2°C° 0 mm 2 mps 765 mmHg 38%
    20:00 -2°C° 0 mm 2 mps 765 mmHg 38%
    21:00 -2°C° 0 mm 2 mps 765 mmHg 39%
    22:00 -1°C° 0 mm 1 mps 764 mmHg 39%
    23:00 0°C° 0 mm 1 mps 764 mmHg 38%

    Tomorrow, 24 February, Sunday

    Time Temperature Precipitation Wind Pressure Humidity
    00:00 0°C° 0 mm 1 mps 764 mmHg 37%
    01:00 0°C° 0 mm 1 mps 764 mmHg 37%
    02:00 0°C° 0 mm 1 mps 764 mmHg 36%
    03:00 +1°C° 0 mm 1 mps 764 mmHg 36%
    04:00 +1°C° 0 mm 1 mps 763 mmHg 35%
    05:00 +1°C° 0 mm 1 mps 763 mmHg 36%
    06:00 +1°C° 0 mm 1 mps 763 mmHg 36%
    07:00 +1°C° 0 mm 1 mps 763 mmHg 37%
    08:00 +1°C° 0 mm 2 mps 763 mmHg 34%
    09:00 +2°C° 0 mm 2 mps 763 mmHg 31%
    10:00 +4°C° 0 mm 2 mps 763 mmHg 29%
    11:00 +5°C° 0 mm 2 mps 763 mmHg 29%
    12:00 +5°C° 0 mm 3 mps 763 mmHg 29%
    13:00 +7°C° 0 mm 3 mps 763 mmHg 28%
    14:00 +7°C° 0 mm 3 mps 762 mmHg 34%
    15:00 +7°C° 0 mm 2 mps 762 mmHg 39%
    16:00 +7°C° 0 mm 2 mps 762 mmHg 44%
    17:00 +5°C° 0 mm 2 mps 762 mmHg 50%
    18:00 +4°C° 0 mm 2 mps 762 mmHg 56%
    19:00 +3°C° 0 mm 2 mps 762 mmHg 62%
    20:00 +2°C° 0 mm 2 mps 762 mmHg 64%
    21:00 +1°C° 0 mm 3 mps 762 mmHg 66%
    22:00 +1°C° 0 mm 3 mps 762 mmHg 68%
    23:00 +1°C° 0 mm 3 mps 762 mmHg 70%

    Day after tomorrow, 25 February, Monday

    Time Temperature Precipitation Wind Pressure Humidity
    00:00 0°C° 0 mm 3 mps 762 mmHg 72%
    01:00 0°C° 0 mm 3 mps 762 mmHg 73%
    02:00 0°C° 0 mm 3 mps 762 mmHg 75%
    03:00 0°C° 0 mm 3 mps 762 mmHg 77%
    04:00 -1°C° 0 mm 3 mps 762 mmHg 78%
    05:00 -1°C° 0 mm 3 mps 762 mmHg 79%
    06:00 -1°C° 0 mm 2 mps 762 mmHg 81%
    07:00 -1°C° 0 mm 2 mps 762 mmHg 82%
    08:00 0°C° 0 mm 3 mps 762 mmHg 78%
    09:00 +2°C° 0 mm 3 mps 762 mmHg 73%
    10:00 +4°C° 0 mm 3 mps 762 mmHg 69%
    11:00 +5°C° 0 mm 3 mps 762 mmHg 67%
    12:00 +8°C° 0 mm 3 mps 762 mmHg 65%
    13:00 +9°C° 0 mm 3 mps 762 mmHg 63%
    14:00 +9°C° 0 mm 3 mps 761 mmHg 63%
    15:00 +9°C° 0 mm 3 mps 761 mmHg 63%
    16:00 +9°C° 0 mm 3 mps 760 mmHg 64%
    17:00 +8°C° 0 mm 3 mps 760 mmHg 67%
    18:00 +7°C° 0 mm 3 mps 760 mmHg 71%
    19:00 +5°C° 0 mm 3 mps 760 mmHg 75%
    20:00 +4°C° 0 mm 3 mps 760 mmHg 74%
    21:00 +4°C° 0 mm 3 mps 760 mmHg 74%
    22:00 +3°C° 0 mm 3 mps 760 mmHg 74%
    23:00 +3°C° 0 mm 3 mps 759 mmHg 75%

    26 February, Tuesday

    Time Temperature Precipitation Wind Pressure Humidity
    00:00 +3°C° 0 mm 3 mps 759 mmHg 77%
    01:00 +2°C° 0 mm 3 mps 759 mmHg 78%
    02:00 +2°C° 0 mm 3 mps 759 mmHg 79%
    03:00 +1°C° 0 mm 4 mps 759 mmHg 80%
    04:00 +1°C° 0 mm 4 mps 758 mmHg 81%
    05:00 0°C° 0 mm 4 mps 758 mmHg 80%
    06:00 0°C° 0 mm 4 mps 758 mmHg 80%
    07:00 0°C° 0 mm 4 mps 758 mmHg 79%
    08:00 +1°C° 0 mm 4 mps 758 mmHg 72%
    09:00 +3°C° 0 mm 5 mps 758 mmHg 65%
    10:00 +5°C° 0 mm 5 mps 758 mmHg 59%
    11:00 +6°C° 0 mm 5 mps 757 mmHg 55%
    12:00 +8°C° 0 mm 5 mps 757 mmHg 51%
    13:00 +9°C° 0 mm 5 mps 757 mmHg 47%
    14:00 +9°C° 0 mm 5 mps 757 mmHg 48%
    15:00 +10°C° 0 mm 5 mps 756 mmHg 49%
    16:00 +11°C° 0 mm 4 mps 756 mmHg 51%
    17:00 +8°C° 0 mm 4 mps 756 mmHg 56%
    18:00 +8°C° 0 mm 3 mps 756 mmHg 62%
    19:00 +7°C° 0 mm 3 mps 756 mmHg 68%
    20:00 +7°C° 0 mm 3 mps 757 mmHg 72%
    21:00 +5°C° 0 mm 3 mps 757 mmHg 76%
    22:00 +5°C° 0 mm 2 mps 757 mmHg 80%
    23:00 +5°C° 0 mm 2 mps 757 mmHg 83%

    27 February, Wednesday

    Time Temperature Precipitation Wind Pressure Humidity
    00:00 +5°C° 0 mm 2 mps 757 mmHg 86%
    01:00 +4°C° 0 mm 2 mps 756 mmHg 89%
    02:00 +3°C° 0 mm 3 mps 756 mmHg 90%
    03:00 +3°C° 0 mm 3 mps 756 mmHg 91%
    04:00 +2°C° 0 mm 3 mps 755 mmHg 92%
    05:00 +2°C° 0 mm 3 mps 755 mmHg 92%
    06:00 +2°C° 0 mm 3 mps 755 mmHg 92%
    07:00 +1°C° 0 mm 4 mps 755 mmHg 91%
    08:00 +3°C° 0 mm 4 mps 754 mmHg 85%
    09:00 +5°C° 0 mm 4 mps 754 mmHg 78%
    10:00 +6°C° 0 mm 5 mps 754 mmHg 71%
    11:00 +8°C° 0 mm 5 mps 753 mmHg 65%
    12:00 +9°C° 0 mm 5 mps 753 mmHg 60%
    13:00 +12°C° 0 mm 5 mps 752 mmHg 54%
    14:00 +12°C° 0 mm 5 mps 752 mmHg 55%
    15:00 +12°C° 0 mm 5 mps 751 mmHg 55%
    16:00 +12°C° 0 mm 4 mps 751 mmHg 56%
    17:00 +11°C° 0 mm 4 mps 750 mmHg 62%
    18:00 +8°C° 0 mm 4 mps 750 mmHg 69%
    19:00 +8°C° 0 mm 3 mps 750 mmHg 75%
    20:00 +7°C° 0 mm 3 mps 750 mmHg 77%
    21:00 +7°C° 0 mm 3 mps 749 mmHg 80%
    22:00 +5°C° 0 mm 3 mps 749 mmHg 82%
    23:00 +5°C° 0 mm 3 mps 749 mmHg 83%

    28 February, Thursday

    Time Temperature Precipitation Wind Pressure Humidity
    00:00 +5°C° 0 mm 3 mps 748 mmHg 85%
    01:00 +4°C° 0 mm 3 mps 748 mmHg 86%
    02:00 +4°C° 0 mm 3 mps 747 mmHg 87%
    03:00 +4°C° 0 mm 4 mps 747 mmHg 88%
    04:00 +3°C° 0 mm 4 mps 747 mmHg 88%
    05:00 +3°C° 0 mm 4 mps 746 mmHg 90%
    06:00 +3°C° 0 mm 4 mps 746 mmHg 91%
    07:00 +3°C° 0 mm 4 mps 746 mmHg 92%
    08:00 +4°C° 0 mm 4 mps 746 mmHg 86%
    09:00 +5°C° 0 mm 4 mps 746 mmHg 80%
    10:00 +7°C° 0 mm 4 mps 746 mmHg 73%
    11:00 +8°C° 0 mm 4 mps 746 mmHg 68%
    12:00 +9°C° 0 mm 5 mps 746 mmHg 62%
    13:00 +10°C° 0 mm 5 mps 746 mmHg 57%
    14:00 +10°C° 0 mm 5 mps 746 mmHg 57%
    15:00 +11°C° 0 mm 4 mps 745 mmHg 57%
    16:00 +11°C° 0 mm 4 mps 745 mmHg 58%
    17:00 +10°C° 0 mm 4 mps 745 mmHg 64%
    18:00 +8°C° 0 mm 3 mps 746 mmHg 71%
    19:00 +7°C° 0 mm 2 mps 746 mmHg 78%
    20:00 +7°C° 0 mm 2 mps 746 mmHg 81%
    21:00 +6°C° 0 mm 2 mps 746 mmHg 85%
    22:00 +6°C° 0 mm 2 mps 746 mmHg 88%
    23:00 +5°C° 0 mm 2 mps 746 mmHg 90%
    Show more